{"data":{"norad_id":64556,"intl_designator":"2025-135AE","name":"TRANSPORTER-14 OBJECT AE","alt_names":[],"object_type":"PAYLOAD","status":"ACTIVE","operator":null,"country":"TBD","launch_date":"2025-06-23","launch_site_code":"AFWTR","launch_vehicle":null,"mission":null,"orbit_class":"UNKNOWN","rcs_meters":null,"size_class":null,"mass_kg":null,"dimensions":null,"purposes":[],"wikipedia_slug":null,"has_3d_model":false,"image_url":null,"decayed_at":null,"tle_current":{"epoch":"2026-05-24T13:45:33.607296Z","epoch_age_seconds":118880,"freshness":"FRESH","line1":"1 64556U 25135AE  26144.57330564  .00007189  00000+0  28771-3 0  9994","line2":"2 64556  97.4715 261.2159 0002898 124.4487 235.7026 15.25377361 51342","mean_motion":15.25377361,"eccentricity":0.0002898,"inclination_deg":97.4715,"raan_deg":261.2159,"arg_perigee_deg":124.4487,"mean_anomaly_deg":235.7026,"bstar":0.00028771,"rev_number":5134,"period_min":94.402869533607,"perigee_km":487.66223947977,"apogee_km":491.64281028839,"semimajor_km":6867.7895248841,"source":"CELESTRAK","updated_at":"2026-05-25T13:38:04.615858Z"}}}